| time (UTC) | temp F | wind direction | speed knots | gust knots | rain 1hr in | rain 24hr in | rain mn in | humidity % | barometer mb |
| 20260504001416 | 78 | 39 | 2.6 | 4.3 | 0.00 | 0.00 | 0.00 | 39 | 1006.8 |
| 20260504000912 | 78 | 27 | 1.7 | 2.6 | 0.00 | 0.00 | 0.00 | 39 | 1006.8 |
| 20260504000409 | 78 | 59 | 1.7 | 1.7 | 0.00 | 0.00 | 0.00 | 40 | 1006.8 |
| 20260503235907 | 77 | 19 | 2.6 | 4.3 | 0.00 | 0.00 | 0.00 | 39 | 1007.1 |
| 20260503235405 | 77 | 21 | 4.3 | 6.1 | 0.00 | 0.00 | 0.00 | 39 | 1006.9 |
| 20260503234902 | 77 | 2 | 5.2 | 6.1 | 0.00 | 0.00 | 0.00 | 39 | 1007.0 |
| 20260503234359 | 78 | 58 | 2.6 | 4.3 | 0.00 | 0.00 | 0.00 | 40 | 1007.1 |
| 20260503233857 | 77 | 16 | 5.2 | 6.1 | 0.00 | 0.00 | 0.00 | 40 | 1007.2 |
| 20260503233353 | 77 | 352 | 2.6 | 4.3 | 0.00 | 0.00 | 0.00 | 41 | 1007.1 |
| 20260503232849 | 77 | 336 | 3.5 | 5.2 | 0.00 | 0.00 | 0.00 | 42 | 1007.2 |
| 20260503232347 | 77 | 61 | 3.5 | 5.2 | 0.00 | 0.00 | 0.00 | 41 | 1007.4 |
| 20260503231845 | 77 | 16 | 4.3 | 6.1 | 0.00 | 0.00 | 0.00 | 41 | 1007.5 |
| 20260503231341 | 78 | 24 | 4.3 | 6.1 | 0.00 | 0.00 | 0.00 | 41 | 1007.4 |
| 20260503230838 | 78 | 50 | 1.7 | 1.7 | 0.00 | 0.00 | 0.00 | 42 | 1007.6 |
| 20260503230335 | 77 | 77 | 0.0 | 0.9 | 0.00 | 0.00 | 0.00 | 43 | 1007.5 |
| 20260503225833 | 77 | 39 | 4.3 | 5.2 | 0.00 | 0.00 | 0.00 | 42 | 1007.6 |
| 20260503225328 | 77 | 16 | 2.6 | 2.6 | 0.00 | 0.00 | 0.00 | 42 | 1007.7 |
| 20260503224825 | 77 | 71 | 2.6 | 2.6 | 0.00 | 0.00 | 0.00 | 41 | 1007.9 |
| 20260503224322 | 77 | 15 | 6.1 | 7.0 | 0.00 | 0.00 | 0.00 | 40 | 1008.0 |
| 20260503223820 | 76 | 65 | 2.6 | 4.3 | 0.00 | 0.00 | 0.00 | 39 | 1008.0 |
| 20260503223317 | 77 | 44 | 4.3 | 7.0 | 0.00 | 0.00 | 0.00 | 40 | 1008.2 |
| 20260503222812 | 76 | 14 | 4.3 | 6.1 | 0.00 | 0.00 | 0.00 | 41 | 1008.2 |
| 20260503222311 | 76 | 15 | 7.0 | 7.8 | 0.00 | 0.00 | 0.00 | 42 | 1008.1 |
| 20260503221809 | 76 | 33 | 5.2 | 7.0 | 0.00 | 0.00 | 0.00 | 40 | 1008.3 |
| 20260503221307 | 76 | 75 | 3.5 | 4.3 | 0.00 | 0.00 | 0.00 | 39 | 1008.5 |
| 20260503220803 | 76 | 79 | 4.3 | 7.0 | 0.00 | 0.00 | 0.00 | 41 | 1008.4 |
| 20260503220300 | 76 | 25 | 4.3 | 5.2 | 0.00 | 0.00 | 0.00 | 42 | 1008.6 |
| 20260503215757 | 76 | 28 | 3.5 | 5.2 | 0.00 | 0.00 | 0.00 | 40 | 1008.2 |
| 20260503215254 | 76 | 23 | 5.2 | 7.0 | 0.00 | 0.00 | 0.00 | 38 | 1008.3 |
| 20260503214752 | 76 | 0 | 4.3 | 7.8 | 0.00 | 0.00 | 0.00 | 38 | 1008.5 |
| 20260503214248 | 75 | 20 | 2.6 | 2.6 | 0.00 | 0.00 | 0.00 | 39 | 1008.5 |
| 20260503213746 | 75 | 4 | 5.2 | 7.8 | 0.00 | 0.00 | 0.00 | 38 | 1008.7 |
| 20260503213244 | 75 | 12 | 3.5 | 6.1 | 0.00 | 0.00 | 0.00 | 40 | 1008.7 |
| 20260503212740 | 75 | 49 | 4.3 | 6.1 | 0.00 | 0.00 | 0.00 | 40 | 1008.8 |
| 20260503212238 | 74 | 319 | 2.6 | 6.1 | 0.00 | 0.00 | 0.00 | 41 | 1008.7 |
| 20260503211735 | 75 | 3 | 3.5 | 6.1 | 0.00 | 0.00 | 0.00 | 40 | 1008.8 |
| 20260503211231 | 75 | 83 | 2.6 | 5.2 | 0.00 | 0.00 | 0.00 | 40 | 1008.8 |
| 20260503210727 | 74 | 49 | 4.3 | 5.2 | 0.00 | 0.00 | 0.00 | 42 | 1008.7 |
| 20260503210225 | 75 | 12 | 12.2 | 13.0 | 0.00 | 0.00 | 0.00 | 39 | 1008.9 |
| 20260503205720 | 74 | 38 | 2.6 | 4.3 | 0.00 | 0.00 | 0.00 | 42 | 1009.1 |
| 20260503205216 | 73 | 23 | 5.2 | 6.1 | 0.00 | 0.00 | 0.00 | 44 | 1009.1 |
| 20260503204713 | 73 | 24 | 2.6 | 4.3 | 0.00 | 0.00 | 0.00 | 44 | 1009.1 |
| 20260503204211 | 73 | 27 | 3.5 | 5.2 | 0.00 | 0.00 | 0.00 | 42 | 1009.3 |
| 20260503203707 | 73 | 33 | 3.5 | 4.3 | 0.00 | 0.00 | 0.00 | 43 | 1009.2 |
| 20260503203205 | 73 | 336 | 2.6 | 5.2 | 0.00 | 0.00 | 0.00 | 43 | 1009.4 |
| 20260503202702 | 74 | 8 | 4.3 | 5.2 | 0.00 | 0.00 | 0.00 | 42 | 1009.3 |
| 20260503202200 | 74 | 355 | 9.6 | 11.3 | 0.00 | 0.00 | 0.00 | 41 | 1009.3 |
| 20260503201658 | 74 | 35 | 4.3 | 6.1 | 0.00 | 0.00 | 0.00 | 42 | 1009.3 |
| 20260503201155 | 74 | 29 | 5.2 | 6.1 | 0.00 | 0.00 | 0.00 | 42 | 1009.5 |
| 20260503200651 | 74 | 11 | 6.1 | 7.8 | 0.00 | 0.00 | 0.00 | 43 | 1009.5 |
| 20260503200148 | 73 | 21 | 2.6 | 4.3 | 0.00 | 0.00 | 0.00 | 43 | 1009.6 |
| 20260503195645 | 74 | 0 | 7.0 | 7.8 | 0.00 | 0.00 | 0.00 | 41 | 1009.4 |
| 20260503195142 | 75 | 51 | 4.3 | 7.8 | 0.00 | 0.00 | 0.00 | 42 | 1009.6 |
| 20260503194639 | 74 | 348 | 6.1 | 7.8 | 0.00 | 0.00 | 0.00 | 43 | 1009.9 |
| 20260503194134 | 73 | 32 | 6.1 | 8.7 | 0.00 | 0.00 | 0.00 | 43 | 1009.8 |
| 20260503193631 | 73 | 333 | 4.3 | 7.0 | 0.00 | 0.00 | 0.00 | 43 | 1009.9 |
| 20260503193126 | 73 | 24 | 1.7 | 2.6 | 0.00 | 0.00 | 0.00 | 44 | 1009.9 |
| 20260503192622 | 73 | 330 | 4.3 | 5.2 | 0.00 | 0.00 | 0.00 | 46 | 1009.8 |
| 20260503192118 | 73 | 335 | 4.3 | 6.1 | 0.00 | 0.00 | 0.00 | 46 | 1010.0 |
| 20260503191615 | 73 | 52 | 0.9 | 0.9 | 0.00 | 0.00 | 0.00 | 48 | 1010.1 |
| 20260503191112 | 73 | 34 | 3.5 | 5.2 | 0.00 | 0.00 | 0.00 | 47 | 1010.2 |
| 20260503190609 | 72 | 21 | 6.1 | 7.8 | 0.00 | 0.00 | 0.00 | 47 | 1010.4 |
| 20260503190106 | 73 | 27 | 8.7 | 11.3 | 0.00 | 0.00 | 0.00 | 47 | 1010.2 |
| 20260503185603 | 72 | 24 | 4.3 | 5.2 | 0.00 | 0.00 | 0.00 | 47 | 1010.4 |
| 20260503185102 | 72 | 2 | 7.0 | 7.8 | 0.00 | 0.00 | 0.00 | 47 | 1010.3 |
| 20260503184558 | 73 | 36 | 4.3 | 6.1 | 0.00 | 0.00 | 0.00 | 46 | 1010.3 |
| 20260503184055 | 72 | 44 | 2.6 | 2.6 | 0.00 | 0.00 | 0.00 | 48 | 1010.2 |
| 20260503183551 | 71 | 358 | 7.0 | 7.8 | 0.00 | 0.00 | 0.00 | 49 | 1010.5 |
| 20260503183049 | 71 | 351 | 4.3 | 5.2 | 0.00 | 0.00 | 0.00 | 50 | 1010.5 |
| 20260503182547 | 70 | 10 | 6.1 | 6.1 | 0.00 | 0.00 | 0.00 | 49 | 1010.7 |
| 20260503182045 | 70 | 351 | 6.1 | 7.8 | 0.00 | 0.00 | 0.00 | 50 | 1010.6 |
| 20260503181541 | 71 | 10 | 2.6 | 5.2 | 0.00 | 0.00 | 0.00 | 51 | 1010.5 |
| 20260503181038 | 71 | 38 | 3.5 | 5.2 | 0.00 | 0.00 | 0.00 | 50 | 1010.6 |
| 20260503180535 | 70 | 6 | 7.0 | 9.6 | 0.00 | 0.00 | 0.00 | 51 | 1010.7 |
| 20260503180032 | 70 | 9 | 2.6 | 6.1 | 0.00 | 0.00 | 0.00 | 52 | 1010.5 |
| 20260503175530 | 70 | 353 | 4.3 | 7.0 | 0.00 | 0.00 | 0.00 | 53 | 1010.6 |
| 20260503175027 | 70 | 5 | 3.5 | 4.3 | 0.00 | 0.00 | 0.00 | 54 | 1010.5 |
| 20260503174524 | 69 | 73 | 2.6 | 2.6 | 0.00 | 0.00 | 0.00 | 55 | 1010.6 |
| 20260503174020 | 69 | 7 | 4.3 | 5.2 | 0.00 | 0.00 | 0.00 | 54 | 1010.6 |
| 20260503173515 | 69 | 9 | 7.0 | 8.7 | 0.00 | 0.00 | 0.00 | 55 | 1010.8 |
| 20260503173012 | 69 | 25 | 4.3 | 5.2 | 0.00 | 0.00 | 0.00 | 54 | 1010.9 |
| 20260503172510 | 70 | 16 | 3.5 | 5.2 | 0.00 | 0.00 | 0.00 | 54 | 1010.9 |
| 20260503172006 | 69 | 69 | 0.9 | 1.7 | 0.00 | 0.00 | 0.00 | 56 | 1010.7 |
| 20260503171503 | 70 | 63 | 1.7 | 2.6 | 0.00 | 0.00 | 0.00 | 54 | 1010.8 |
| 20260503171000 | 69 | 29 | 2.6 | 2.6 | 0.00 | 0.00 | 0.00 | 55 | 1010.8 |
| 20260503170456 | 69 | 106 | 2.6 | 2.6 | 0.00 | 0.00 | 0.00 | 54 | 1010.9 |
| 20260503150849 | 63 | 58 | 0.9 | 0.9 | 0.00 | 0.00 | 0.00 | 62 | 1011.1 |
| 20260503150345 | 63 | 30 | 2.6 | 2.6 | 0.00 | 0.00 | 0.00 | 60 | 1010.9 |
| 20260503140309 | 62 | 50 | 1.7 | 2.6 | 0.00 | 0.00 | 0.00 | 62 | 1010.9 |
| 20260503131239 | 57 | 72 | 0.0 | 0.9 | 0.00 | 0.00 | 0.00 | 72 | 1010.8 |
| 20260503130736 | 56 | 74 | 0.9 | 0.9 | 0.00 | 0.00 | 0.00 | 73 | 1010.8 |
| 20260503130233 | 56 | 70 | 0.9 | 1.7 | 0.00 | 0.00 | 0.00 | 73 | 1011.1 |
| 20260503120159 | 57 | 74 | 0.0 | 0.9 | 0.00 | 0.00 | 0.00 | 69 | 1010.9 |
| 20260503110627 | 59 | 58 | 1.7 | 2.6 | 0.00 | 0.00 | 0.00 | 64 | 1011.1 |
| 20260503110124 | 59 | 93 | 1.7 | 2.6 | 0.00 | 0.00 | 0.00 | 63 | 1011.0 |
| 20260503081440 | 62 | 83 | 0.9 | 1.7 | 0.00 | 0.00 | 0.00 | 54 | 1011.2 |
| 20260503080937 | 62 | 60 | 0.9 | 0.9 | 0.00 | 0.00 | 0.00 | 54 | 1011.2 |
| 20260503080433 | 62 | 55 | 0.9 | 1.7 | 0.00 | 0.00 | 0.00 | 54 | 1011.2 |
| 20260503072910 | 63 | 47 | 1.7 | 1.7 | 0.00 | 0.00 | 0.00 | 52 | 1011.2 |
| 20260503072407 | 63 | 72 | 0.9 | 0.9 | 0.00 | 0.00 | 0.00 | 52 | 1011.2 |
| 20260503071904 | 64 | 86 | 0.9 | 0.9 | 0.00 | 0.00 | 0.00 | 52 | 1011.1 |
| 20260503071401 | 64 | 79 | 0.0 | 0.9 | 0.00 | 0.00 | 0.00 | 51 | 1011.1 |
| 20260503070856 | 64 | 35 | 2.6 | 2.6 | 0.00 | 0.00 | 0.00 | 51 | 1011.2 |
| 20260503070355 | 64 | 57 | 1.7 | 2.6 | 0.00 | 0.00 | 0.00 | 51 | 1011.1 |
| 20260503060320 | 64 | 81 | 0.9 | 1.7 | 0.00 | 0.00 | 0.00 | 50 | 1011.2 |
| 20260503054808 | 65 | 80 | 0.9 | 1.7 | 0.00 | 0.00 | 0.00 | 50 | 1011.0 |
| 20260503054304 | 65 | 63 | 1.7 | 1.7 | 0.00 | 0.00 | 0.00 | 50 | 1010.8 |
| 20260503053802 | 65 | 64 | 0.9 | 0.9 | 0.00 | 0.00 | 0.00 | 50 | 1011.1 |
| 20260503053300 | 65 | 45 | 2.6 | 4.3 | 0.00 | 0.00 | 0.00 | 50 | 1010.8 |
| 20260503052756 | 65 | 102 | 1.7 | 4.3 | 0.00 | 0.00 | 0.00 | 51 | 1010.8 |
| 20260503052253 | 65 | 101 | 0.9 | 1.7 | 0.00 | 0.00 | 0.00 | 51 | 1010.8 |
| 20260503051748 | 65 | 50 | 1.7 | 1.7 | 0.00 | 0.00 | 0.00 | 51 | 1010.9 |
| 20260503051246 | 65 | 77 | 0.9 | 1.7 | 0.00 | 0.00 | 0.00 | 51 | 1010.8 |
| 20260503050742 | 65 | 54 | 1.7 | 2.6 | 0.00 | 0.00 | 0.00 | 50 | 1011.1 |
| 20260503050239 | 65 | 73 | 0.0 | 0.9 | 0.00 | 0.00 | 0.00 | 50 | 1011.0 |
| 20260503045736 | 65 | 79 | 1.7 | 1.7 | 0.00 | 0.00 | 0.00 | 50 | 1010.7 |
| 20260503045234 | 65 | 76 | 0.0 | 0.9 | 0.00 | 0.00 | 0.00 | 51 | 1011.0 |
| 20260503044730 | 65 | 74 | 0.0 | 0.0 | 0.00 | 0.00 | 0.00 | 51 | 1010.9 |
| 20260503044228 | 65 | 79 | 0.0 | 0.0 | 0.00 | 0.00 | 0.00 | 51 | 1010.9 |
| 20260503043724 | 65 | 71 | 0.9 | 0.9 | 0.00 | 0.00 | 0.00 | 51 | 1010.8 |
| 20260503043222 | 65 | 63 | 0.9 | 0.9 | 0.00 | 0.00 | 0.00 | 51 | 1010.7 |
| 20260503042717 | 66 | 65 | 0.9 | 0.9 | 0.00 | 0.00 | 0.00 | 50 | 1010.9 |
| 20260503042215 | 66 | 75 | 1.7 | 2.6 | 0.00 | 0.00 | 0.00 | 50 | 1010.9 |
| 20260503041710 | 66 | 78 | 0.0 | 0.9 | 0.00 | 0.00 | 0.00 | 51 | 1010.7 |
| 20260503041208 | 66 | 78 | 0.0 | 0.9 | 0.00 | 0.00 | 0.00 | 50 | 1010.6 |
| 20260503040705 | 67 | 39 | 1.7 | 1.7 | 0.00 | 0.00 | 0.00 | 49 | 1010.6 |
| 20260503040203 | 67 | 38 | 3.5 | 4.3 | 0.00 | 0.00 | 0.00 | 49 | 1010.6 |
| 20260503035659 | 67 | 44 | 0.9 | 0.9 | 0.00 | 0.00 | 0.00 | 49 | 1010.5 |
| 20260503035157 | 67 | 76 | 0.9 | 0.9 | 0.00 | 0.00 | 0.00 | 50 | 1010.5 |
| 20260503034654 | 67 | 66 | 1.7 | 1.7 | 0.00 | 0.00 | 0.00 | 50 | 1010.3 |
| 20260503034151 | 67 | 34 | 2.6 | 2.6 | 0.00 | 0.00 | 0.00 | 50 | 1010.3 |
| 20260503033649 | 67 | 86 | 1.7 | 2.6 | 0.00 | 0.00 | 0.00 | 50 | 1010.0 |
| 20260503033146 | 67 | 50 | 2.6 | 5.2 | 0.00 | 0.00 | 0.00 | 51 | 1010.1 |
| 20260503032644 | 67 | 75 | 2.6 | 4.3 | 0.00 | 0.00 | 0.00 | 51 | 1010.0 |
| 20260503032143 | 67 | 1 | 2.6 | 4.3 | 0.00 | 0.00 | 0.00 | 51 | 1010.0 |
| 20260503031639 | 67 | 30 | 3.5 | 4.3 | 0.00 | 0.00 | 0.00 | 51 | 1009.9 |
| 20260503031137 | 67 | 0 | 6.1 | 7.8 | 0.00 | 0.00 | 0.00 | 51 | 1009.8 |
| 20260503030633 | 67 | 33 | 3.5 | 4.3 | 0.00 | 0.00 | 0.00 | 51 | 1009.7 |
| 20260503030130 | 68 | 19 | 3.5 | 5.2 | 0.00 | 0.00 | 0.00 | 51 | 1010.0 |
| 20260503025626 | 68 | 0 | 4.3 | 7.0 | 0.00 | 0.00 | 0.00 | 50 | 1009.8 |
| 20260503025125 | 68 | 346 | 3.5 | 6.1 | 0.00 | 0.00 | 0.00 | 50 | 1009.7 |
| 20260503024621 | 68 | 26 | 4.3 | 6.1 | 0.00 | 0.00 | 0.00 | 50 | 1009.7 |
| 20260503024118 | 68 | 343 | 4.3 | 7.0 | 0.00 | 0.00 | 0.00 | 50 | 1009.9 |
| 20260503023615 | 68 | 20 | 4.3 | 5.2 | 0.00 | 0.00 | 0.00 | 50 | 1009.7 |
| 20260503023112 | 68 | 352 | 4.3 | 6.1 | 0.00 | 0.00 | 0.00 | 51 | 1009.7 |
| 20260503022607 | 68 | 30 | 2.6 | 2.6 | 0.00 | 0.00 | 0.00 | 51 | 1009.7 |
| 20260503022102 | 68 | 12 | 6.1 | 7.8 | 0.00 | 0.00 | 0.00 | 51 | 1009.8 |
| 20260503021600 | 69 | 324 | 3.5 | 4.3 | 0.00 | 0.00 | 0.00 | 51 | 1009.7 |
| 20260503021056 | 69 | 0 | 7.0 | 11.3 | 0.00 | 0.00 | 0.00 | 51 | 1009.6 |
| 20260503020554 | 69 | 348 | 6.1 | 7.8 | 0.00 | 0.00 | 0.00 | 50 | 1009.9 |
| 20260503020050 | 69 | 352 | 6.1 | 8.7 | 0.00 | 0.00 | 0.00 | 50 | 1009.5 |
| 20260503015547 | 69 | 12 | 5.2 | 7.8 | 0.00 | 0.00 | 0.00 | 49 | 1009.7 |
| 20260503015045 | 69 | 20 | 0.9 | 2.6 | 0.00 | 0.00 | 0.00 | 49 | 1009.7 |
| 20260503014540 | 69 | 0 | 5.2 | 8.7 | 0.00 | 0.00 | 0.00 | 49 | 1009.9 |
| 20260503014038 | 69 | 331 | 8.7 | 11.3 | 0.00 | 0.00 | 0.00 | 49 | 1009.8 |
| 20260503013535 | 69 | 359 | 13.9 | 15.6 | 0.00 | 0.00 | 0.00 | 48 | 1009.8 |
| 20260503013033 | 69 | 19 | 6.1 | 7.8 | 0.00 | 0.00 | 0.00 | 49 | 1009.9 |
| 20260503012530 | 69 | 9 | 9.6 | 13.0 | 0.00 | 0.00 | 0.00 | 48 | 1010.0 |
| 20260503012026 | 69 | 37 | 7.0 | 11.3 | 0.00 | 0.00 | 0.00 | 48 | 1009.9 |
| 20260503011523 | 69 | 345 | 10.4 | 13.0 | 0.00 | 0.00 | 0.00 | 47 | 1010.0 |
| 20260503011021 | 69 | 8 | 10.4 | 13.0 | 0.00 | 0.00 | 0.00 | 48 | 1010.1 |
| 20260503010516 | 69 | 359 | 7.8 | 9.6 | 0.00 | 0.00 | 0.00 | 48 | 1009.8 |
| 20260503010015 | 69 | 30 | 7.0 | 12.2 | 0.00 | 0.00 | 0.00 | 49 | 1010.0 |
| 20260503005512 | 69 | 31 | 9.6 | 12.2 | 0.00 | 0.00 | 0.00 | 50 | 1010.0 |
| 20260503005009 | 70 | 1 | 7.8 | 12.2 | 0.00 | 0.00 | 0.00 | 51 | 1009.8 |
| 20260503004504 | 69 | 1 | 7.0 | 8.7 | 0.00 | 0.00 | 0.00 | 51 | 1010.1 |
| 20260503004003 | 69 | 12 | 4.3 | 6.1 | 0.00 | 0.00 | 0.00 | 51 | 1010.1 |
| 20260503003459 | 69 | 33 | 5.2 | 7.8 | 0.00 | 0.00 | 0.00 | 51 | 1010.0 |
| 20260503002956 | 69 | 351 | 6.1 | 7.0 | 0.00 | 0.00 | 0.00 | 52 | 1009.9 |
| 20260503002453 | 69 | 355 | 8.7 | 9.6 | 0.00 | 0.00 | 0.00 | 52 | 1009.9 |
| 20260503001949 | 69 | 61 | 6.1 | 7.8 | 0.00 | 0.00 | 0.00 | 52 | 1010.0 |